When you browse on this site, cookies collect data to enhance your experience and personalize the content and advertising you see.
Visit our Privacy Policy to learn more. By continuing to use the site, you agree to this use of cookies and data.
  • In Österreich
  • Länderverzeichnis
  • Für 7 Tage
  • Wassertemperatur
  • Satellitenkarten
  • Wetterkarte
  • News
  • Widgets
  • user-avatar
    Anmelden

    Stündliche Wetter Emenovo

    Heute, 18 Januar, Freitag

    Zeit Temperatur Niederschläge Wind Luftdruck Luftfeuchtigkeit
    00:00 -1°C° 0 mm 6 m/S 727 mmHg 86%
    01:00 -1°C° 0 mm 6 m/S 728 mmHg 86%
    02:00 -1°C° 0 mm 5 m/S 728 mmHg 87%
    03:00 -1°C° 0.1 mm 5 m/S 729 mmHg 87%
    04:00 -1°C° 0.1 mm 5 m/S 729 mmHg 87%
    05:00 -1°C° 0.1 mm 5 m/S 730 mmHg 86%
    06:00 -1°C° 0.1 mm 5 m/S 730 mmHg 87%
    07:00 -2°C° 0.1 mm 5 m/S 731 mmHg 87%
    08:00 -2°C° 0 mm 4 m/S 731 mmHg 89%
    09:00 -2°C° 0.1 mm 4 m/S 732 mmHg 89%
    10:00 -2°C° 0.1 mm 3 m/S 732 mmHg 88%
    11:00 -2°C° 0.1 mm 3 m/S 733 mmHg 88%
    12:00 -2°C° 0.2 mm 3 m/S 733 mmHg 90%
    13:00 -2°C° 0.2 mm 2 m/S 733 mmHg 91%
    14:00 0°C° 0 mm 1 m/S 733 mmHg 95%
    15:00 -1°C° 0.8 mm 1 m/S 733 mmHg 96%
    16:00 -3°C° 0.8 mm 2 m/S 733 mmHg 96%
    17:00 -4°C° 0.8 mm 2 m/S 732 mmHg 96%
    18:00 -6°C° 1.4 mm 3 m/S 733 mmHg 95%
    19:00 -7°C° 1.4 mm 3 m/S 733 mmHg 95%
    20:00 -9°C° 1.4 mm 4 m/S 733 mmHg 94%
    21:00 -8°C° 0.1 mm 3 m/S 734 mmHg 93%
    22:00 -9°C° 0.1 mm 3 m/S 734 mmHg 92%
    23:00 -8°C° 0.1 mm 2 m/S 735 mmHg 91%

    Morgen, 19 Januar, Samstag

    Zeit Temperatur Niederschläge Wind Luftdruck Luftfeuchtigkeit
    00:00 -9°C° 0 mm 2 m/S 736 mmHg 92%
    01:00 -12°C° 0 mm 3 m/S 736 mmHg 92%
    02:00 -14°C° 0 mm 3 m/S 737 mmHg 93%
    03:00 -14°C° 0 mm 3 m/S 737 mmHg 93%
    04:00 -14°C° 0 mm 3 m/S 737 mmHg 93%
    05:00 -14°C° 0 mm 3 m/S 737 mmHg 93%
    06:00 -14°C° 0 mm 4 m/S 738 mmHg 92%
    07:00 -12°C° 0 mm 4 m/S 738 mmHg 91%
    08:00 -11°C° 0 mm 4 m/S 738 mmHg 90%
    09:00 -10°C° 0 mm 4 m/S 739 mmHg 89%
    10:00 -9°C° 0 mm 4 m/S 739 mmHg 88%
    11:00 -8°C° 0 mm 5 m/S 739 mmHg 87%
    12:00 -9°C° 0.1 mm 4 m/S 740 mmHg 86%
    13:00 -9°C° 0.1 mm 4 m/S 740 mmHg 84%
    14:00 -9°C° 0.1 mm 4 m/S 740 mmHg 83%
    15:00 -10°C° 0 mm 4 m/S 741 mmHg 85%
    16:00 -10°C° 0 mm 3 m/S 741 mmHg 87%
    17:00 -12°C° 0 mm 3 m/S 742 mmHg 89%
    18:00 -12°C° 0 mm 3 m/S 742 mmHg 90%
    19:00 -13°C° 0 mm 3 m/S 742 mmHg 91%
    20:00 -13°C° 0 mm 3 m/S 742 mmHg 92%
    21:00 -12°C° 0 mm 3 m/S 742 mmHg 91%
    22:00 -9°C° 0 mm 3 m/S 742 mmHg 90%
    23:00 -8°C° 0 mm 4 m/S 743 mmHg 89%

    übermorgen, 20 Januar, Sonntag

    Zeit Temperatur Niederschläge Wind Luftdruck Luftfeuchtigkeit
    00:00 -9°C° 0 mm 4 m/S 743 mmHg 90%
    01:00 -9°C° 0 mm 4 m/S 742 mmHg 90%
    02:00 -10°C° 0 mm 4 m/S 742 mmHg 90%
    03:00 -10°C° 0 mm 5 m/S 742 mmHg 89%
    04:00 -10°C° 0 mm 5 m/S 741 mmHg 88%
    05:00 -10°C° 0 mm 5 m/S 741 mmHg 86%
    06:00 -9°C° 0.1 mm 6 m/S 740 mmHg 86%
    07:00 -9°C° 0.1 mm 6 m/S 740 mmHg 86%
    08:00 -8°C° 0.1 mm 6 m/S 740 mmHg 85%
    09:00 -8°C° 0.1 mm 6 m/S 739 mmHg 85%
    10:00 -6°C° 0.1 mm 6 m/S 739 mmHg 86%
    11:00 -5°C° 0.1 mm 6 m/S 739 mmHg 86%
    12:00 -5°C° 0.3 mm 6 m/S 739 mmHg 86%
    13:00 -6°C° 0.3 mm 5 m/S 739 mmHg 85%
    14:00 -7°C° 0.3 mm 4 m/S 739 mmHg 84%
    15:00 -7°C° 0 mm 4 m/S 739 mmHg 85%
    16:00 -8°C° 0 mm 4 m/S 739 mmHg 85%
    17:00 -9°C° 0 mm 4 m/S 739 mmHg 86%
    18:00 -9°C° 0 mm 3 m/S 740 mmHg 87%
    19:00 -9°C° 0 mm 3 m/S 740 mmHg 89%
    20:00 -10°C° 0 mm 3 m/S 740 mmHg 90%
    21:00 -12°C° 0 mm 3 m/S 740 mmHg 91%
    22:00 -13°C° 0 mm 3 m/S 741 mmHg 92%
    23:00 -14°C° 0 mm 2 m/S 741 mmHg 93%

    21 Januar, Montag

    Zeit Temperatur Niederschläge Wind Luftdruck Luftfeuchtigkeit
    00:00 -14°C° 0 mm 2 m/S 741 mmHg 93%
    01:00 -15°C° 0 mm 3 m/S 741 mmHg 94%
    02:00 -16°C° 0 mm 3 m/S 742 mmHg 95%
    03:00 -16°C° 0 mm 3 m/S 742 mmHg 94%
    04:00 -16°C° 0 mm 3 m/S 742 mmHg 93%
    05:00 -16°C° 0 mm 3 m/S 742 mmHg 93%
    06:00 -16°C° 0 mm 3 m/S 742 mmHg 93%
    07:00 -16°C° 0 mm 3 m/S 742 mmHg 93%
    08:00 -16°C° 0 mm 3 m/S 743 mmHg 93%
    09:00 -15°C° 0 mm 3 m/S 743 mmHg 92%
    10:00 -14°C° 0 mm 3 m/S 743 mmHg 90%
    11:00 -15°C° 0 mm 4 m/S 743 mmHg 89%
    12:00 -14°C° 0 mm 4 m/S 744 mmHg 87%
    13:00 -14°C° 0 mm 4 m/S 744 mmHg 86%
    14:00 -13°C° 0 mm 3 m/S 744 mmHg 85%
    15:00 -14°C° 0 mm 3 m/S 744 mmHg 87%
    16:00 -15°C° 0 mm 3 m/S 744 mmHg 90%
    17:00 -15°C° 0 mm 2 m/S 745 mmHg 92%
    18:00 -15°C° 0 mm 2 m/S 745 mmHg 93%
    19:00 -16°C° 0 mm 2 m/S 745 mmHg 94%
    20:00 -16°C° 0 mm 2 m/S 745 mmHg 95%
    21:00 -17°C° 0 mm 2 m/S 745 mmHg 95%
    22:00 -17°C° 0 mm 2 m/S 745 mmHg 96%
    23:00 -17°C° 0 mm 2 m/S 746 mmHg 96%

    22 Januar, Dienstag

    Zeit Temperatur Niederschläge Wind Luftdruck Luftfeuchtigkeit
    00:00 -18°C° 0 mm 2 m/S 746 mmHg 97%
    01:00 -18°C° 0 mm 2 m/S 746 mmHg 97%
    02:00 -19°C° 0 mm 2 m/S 746 mmHg 97%
    03:00 -19°C° 0 mm 2 m/S 746 mmHg 97%
    04:00 -17°C° 0 mm 1 m/S 746 mmHg 97%
    05:00 -17°C° 0 mm 1 m/S 746 mmHg 97%
    06:00 -17°C° 0 mm 1 m/S 746 mmHg 97%
    07:00 -18°C° 0 mm 1 m/S 746 mmHg 97%
    08:00 -18°C° 0 mm 0 m/S 746 mmHg 98%
    09:00 -16°C° 0 mm 0 m/S 746 mmHg 97%
    10:00 -15°C° 0 mm 0 m/S 746 mmHg 96%
    11:00 -14°C° 0 mm 0 m/S 746 mmHg 95%
    12:00 -13°C° 0 mm 0 m/S 746 mmHg 95%
    13:00 -13°C° 0 mm 0 m/S 746 mmHg 95%
    14:00 -12°C° 0 mm 0 m/S 746 mmHg 95%
    15:00 -13°C° 0 mm 0 m/S 745 mmHg 96%
    16:00 -13°C° 0 mm 1 m/S 745 mmHg 97%
    17:00 -14°C° 0 mm 1 m/S 745 mmHg 97%
    18:00 -14°C° 0 mm 1 m/S 745 mmHg 98%
    19:00 -15°C° 0 mm 0 m/S 745 mmHg 98%
    20:00 -15°C° 0 mm 0 m/S 745 mmHg 98%
    21:00 -15°C° 0 mm 0 m/S 745 mmHg 98%
    22:00 -15°C° 0 mm 0 m/S 745 mmHg 98%
    23:00 -15°C° 0 mm 0 m/S 745 mmHg 98%

    23 Januar, Mittwoch

    Zeit Temperatur Niederschläge Wind Luftdruck Luftfeuchtigkeit
    00:00 -15°C° 0 mm 0 m/S 745 mmHg 97%
    01:00 -14°C° 0 mm 1 m/S 745 mmHg 97%
    02:00 -14°C° 0 mm 1 m/S 745 mmHg 96%
    03:00 -14°C° 0 mm 1 m/S 745 mmHg 97%
    04:00 -15°C° 0 mm 1 m/S 745 mmHg 97%
    05:00 -15°C° 0 mm 1 m/S 745 mmHg 97%
    06:00 -14°C° 0 mm 1 m/S 745 mmHg 97%
    07:00 -14°C° 0 mm 1 m/S 745 mmHg 97%
    08:00 -13°C° 0 mm 1 m/S 746 mmHg 96%
    09:00 -14°C° 0 mm 2 m/S 746 mmHg 96%
    10:00 -13°C° 0 mm 2 m/S 746 mmHg 95%
    11:00 -10°C° 0 mm 2 m/S 746 mmHg 95%
    12:00 -9°C° 0 mm 2 m/S 746 mmHg 94%
    13:00 -8°C° 0 mm 2 m/S 746 mmHg 94%
    14:00 -7°C° 0 mm 2 m/S 746 mmHg 93%
    15:00 -7°C° 0 mm 2 m/S 746 mmHg 93%
    16:00 -7°C° 0 mm 2 m/S 746 mmHg 93%
    17:00 -7°C° 0 mm 2 m/S 746 mmHg 92%
    18:00 -7°C° 0 mm 2 m/S 746 mmHg 93%
    19:00 -8°C° 0 mm 2 m/S 746 mmHg 93%
    20:00 -9°C° 0 mm 2 m/S 747 mmHg 93%
    21:00 -9°C° 0 mm 2 m/S 747 mmHg 94%
    22:00 -10°C° 0 mm 2 m/S 747 mmHg 95%
    23:00 -12°C° 0 mm 2 m/S 747 mmHg 96%
    Mehr zeigen